Regional Weather Roundup
Issued by NWS Northern Indiana

Home | Current Version | Previous Version | Text Only | Print | Product List | Glossary Off
Versions: 1 2 3 4 5 6 7 8 9 10 11 12 13 14 15 16 17 18 19 20 21 22 23 24 25 26 27 28 29 30 31 32 33 34 35 36 37 38 39 40 41 42 43 44 45 46 47 48 49 50

000
ASUS43 KIWX 181800
RWRIWX

KIWX WEATHER ROUNDUP
NATIONAL WEATHER SERVICE NORTHERN INDIANA
100 PM EST THU DEC 18 2014

NOTE: "FAIR" INDICATES FEW OR NO CLOUDS BELOW 12,000 FEET WITH NO
SIGNIFICANT WEATHER AND/OR OBSTRUCTIONS TO VISIBILITY.

* THESE STATIONS ARE NOT UNDER NWS QUALITY CONTROL. THEY ALSO MAY NOT
  REPORT WEATHER SUCH AS PRECIPITATION OR FOG.

INZ001>027-181900-
NORTHERN INDIANA

CITY           SKY/WX    TMP DP  RH WIND       PRES   REMARKS
GARY*          PTSUNNY   27  14  59 VRB5      30.28F WCI  21
SOUTH BEND     CLOUDY    28  22  78 W8        30.25F WCI  20
6HR MIN TEMP:  27; 6HR MAX TEMP:  28; 6HR PCP: TRACE;

ELKHART*       CLOUDY    27  21  80 W9        30.25F HAZE    WCI  17
GOSHEN         CLOUDY    27  22  81 W9        30.23F WCI  18
6HR MIN TEMP:  27; 6HR MAX TEMP:  28;

ANGOLA*        CLOUDY    27  25  93 W9        30.21S WCI  17
FORT WAYNE     FLURRIES  27  21  78 W9        30.24F WCI  18
6HR MIN TEMP:  27; 6HR MAX TEMP:  28; 6HR PCP: TRACE;


$$
INZ028>050-181900-
CENTRAL INDIANA

CITY           SKY/WX    TMP DP  RH WIND       PRES   REMARKS
LAFAYETTE      CLOUDY    25  19  78 W3        30.27F
6HR MIN TEMP:  24; 6HR MAX TEMP:  26;

KOKOMO*        CLOUDY    27  18  69 W6        30.26S WCI  20
6HR MIN TEMP:  27; 6HR MAX TEMP:  27;

MUNCIE*        CLOUDY    27  20  75 NW7       30.24F WCI  19
6HR MIN TEMP:  26; 6HR MAX TEMP:  27;

INDIANAPOLIS   CLOUDY    26  20  77 CALM      30.25F
6HR MIN TEMP:  25; 6HR MAX TEMP:  26; 6HR PCP: TRACE;


$$
MIZ043>046-050>051-056>058-064>065-071>073-077>080-181900-
SOUTHWEST LOWER MICHIGAN

CITY           SKY/WX    TMP DP  RH WIND       PRES   REMARKS
BATTLE CREEK   CLOUDY    31  25  78 W10       30.19F WCI  22
6HR MIN TEMP:  30; 6HR MAX TEMP:  32;

BENTON HARBOR  CLOUDY    28  23  81 SW9       30.24F WCI  19
6HR MIN TEMP:  27; 6HR MAX TEMP:  29;

COLDWATER*     CLOUDY    29  25  86 W12       30.20F WCI  19
6HR MIN TEMP:  28; 6HR MAX TEMP:  30;

HILLSDALE*     CLOUDY    31  28  87 NW9       30.17F WCI  23
6HR MIN TEMP:  28; 6HR MAX TEMP:  31;

HOLLAND        FLURRIES  34  29  82 W14       30.21F WCI  25
6HR MIN TEMP:  33; 6HR MAX TEMP:  34; 6HR PCP: TRACE;

GRAND RAPIDS   CLOUDY    31  28  89 W8        30.19F FOG     WCI  23
6HR MIN TEMP:  30; 6HR MAX TEMP:  32; 6HR PCP: TRACE;

KALAMAZOO      CLOUDY    31  24  75 W10       30.21F WCI  22
6HR MIN TEMP:  29; 6HR MAX TEMP:  31; 6HR PCP: TRACE;

STURGIS*       CLOUDY    27  25  93 W8        30.22S WCI  18
THREE RIVERS*  CLOUDY    28  25  87 W8        30.23F FOG     WCI  20
6HR MIN TEMP:  28; 6HR MAX TEMP:  29;


$$
OHZ001>008-015>018-024>025-181900-
NORTHWEST OHIO

CITY           SKY/WX    TMP DP  RH WIND       PRES   REMARKS
DEFIANCE       CLOUDY    30  24  78 W8        30.23F WCI  22
6HR MIN TEMP:  29; 6HR MAX TEMP:  30;

FINDLAY        CLOUDY    30  24  78 W13       30.20F WCI  20
6HR MIN TEMP:  29; 6HR MAX TEMP:  31;

TOLEDO EXPRESS CLOUDY    31  24  75 W9        30.20F WCI  23
6HR MIN TEMP:  29; 6HR MAX TEMP:  31;

TOLEDO METCALF CLOUDY    33  24  69 W9        30.21F WCI  25
6HR MIN TEMP:  30; 6HR MAX TEMP:  33;

LIMA           CLOUDY    31  22  69 SW12      30.22F WCI  22
6HR MIN TEMP:  30; 6HR MAX TEMP:  31;


$$
AND FOR LAKE MICHIGAN COASTAL AND OPEN LAKE BUOY OBSERVATIONS

STATION/POSITION TEMP    WIND        PRES    VSBY  WAVE
                 AIR SEA DIR/SP/G                  HT/PER
                 (F)     (DEG/KT/KT) (MB)    (MI)  (FT/S)
CALUMET HARBOR    25     200/  5/  8 1024.0F
SAINT JOSEPH      30     200/  9/ 12 1024.7F

$$
&&


USA.gov is the U.S. government's official web portal to all federal, state and local government web resources and services.